Weather Roundup
Issued by NWS

Home | Current Version | Previous Version | Graphics & Text | Print | Product List | Glossary Off
Versions: 1 2 3 4 5 6 7 8 9 10 11 12 13 14 15 16 17 18 19 20 21 22 23 24 25 26 27 28 29 30 31 32 33 34 35 36 37 38 39 40 41 42 43 44 45 46 47 48 49 50

000
NZUS93 KARX 010010
HRRWXR

CURRENT HOURLY OBSERVATIONS ACROSS
MUCH OF THE UPPER MISSISSIPPI VALLEY
NATIONAL WEATHER SERVICE LA CROSSE WI
700 PM CDT TUE MAR 31 2015


...SOUTHEAST MINNESOTA...


CITY           SKY/WX    TMP DP  RH WIND       PRES   REMARKS
ROCHESTER      CLEAR     57  37  47 NW9       29.91S
ROCHESTER/MAYO FAIR      61  32  34 W8        29.90S
WINONA         CLEAR     61  30  31 W5        29.89S
AUSTIN         CLEAR     61  34  36 NW5       29.89F
ALBERT LEA     CLEAR     64  30  27 N3        29.89S
DODGE CENTER   CLEAR     61  32  33 NW6       29.90S
PRESTON        CLEAR     57  32  39 NW7       29.91S
OWATONNA       CLEAR     61  34  36 NW5       29.89S
FARIBAULT      CLEAR     61  34  36 W5        29.89S
$$

...ELSEWHERE IN MINNESOTA...


CITY           SKY/WX    TMP DP  RH WIND       PRES   REMARKS
MINNEAPOLIS    PTCLDY    62  27  26 W5        29.88S
INTNL FALLS    CLEAR     44  31  60 NE3       29.88S
DULUTH         MOCLDY    53  26  35 N6        29.88R
RED WING       CLEAR     63  25  23 NW5       29.87S
REDWOOD FALLS  PTCLDY    67  29  24 E7        29.83F
MANKATO        CLEAR     63  34  34 E6        29.87F
WORTHINGTON    PTCLDY    70  30  23 SW6       29.86S
FAIRMONT       CLEAR     70  25  18 CALM      29.86S
$$

...SOUTHWEST WISCONSIN...


CITY           SKY/WX    TMP DP  RH WIND       PRES   REMARKS
LA CROSSE      CLEAR     61  33  35 W5        29.88S
PRAIRIE DU CHI CLEAR     61  29  29 W9        29.90S
BOSCOBEL       CLEAR     63  25  23 W8        29.89S
LONE ROCK      CLEAR     61  26  26 NW7       29.89R
PLATTEVILLE    CLEAR     59  33  37 W8        29.91S
FORT MC COY    CLEAR     60  26  27 W9        29.90R
CAMP DOUGLAS   PTCLDY    59  25  27 W9        29.87R
VIROQUA        FAIR      56  31  37 NW5       29.90S
WIS DELLS      CLEAR     58  27  30 W8        29.88S
$$

...ELSEWHERE IN WISCONSIN...


CITY           SKY/WX    TMP DP  RH WIND       PRES   REMARKS
MILWAUKEE      PTCLDY    43  33  68 SE10      29.91S
MADISON        PTCLDY    60  25  26 NW8       29.88S
GREEN BAY      PTCLDY    55  34  45 NW12      29.86R
EAU CLAIRE     CLEAR     60  20  21 N7        29.87S
BLACK RVR FLS  FAIR      61  22  22 W10G16    29.87R
MEDFORD        CLEAR     53  28  38 NW12      29.86S
WAUSAU         CLEAR     55  25  31 NW10      29.85R
WIS RAPIDS     CLEAR     57  23  26 NW12      29.88R
MARSHFIELD     CLEAR     55  29  36 W8        29.87R
RICE LAKE      PTCLDY    57  23  26 NW5       29.90R
$$

...NORTHEAST IOWA...


CITY           SKY/WX    TMP DP  RH WIND       PRES   REMARKS
DECORAH        CLEAR     59  34  38 NW6       29.90S
MASON CITY     CLEAR     66  32  28 N5        29.90F
CHARLES CITY   CLEAR     63  34  34 NW6       29.91S
OELWEIN        CLEAR     61  36  39 NW9       29.92S
$$

...ELSEWHERE IN IOWA...


CITY           SKY/WX    TMP DP  RH WIND       PRES   REMARKS
DES MOINES     PTCLDY    73  28  18 W3        29.90S
IOWA CITY      CLEAR     67  31  26 NW8       29.93S
FORT DODGE     CLEAR     70  34  26 SW5       29.89S
$$

...NORTHERN ILLINOIS...


CITY           SKY/WX    TMP DP  RH WIND       PRES   REMARKS
CHICAGO-OHARE  PTCLDY    55  34  45 W7        29.92F
CHICAGO-MIDWAY PTCLDY    51  35  54 SE8       29.94F
MOLINE         CLEAR     65  26  23 NW9       29.91R
ROCKFORD       CLEAR     58  33  39 W5        29.92F
PEORIA         CLEAR     68  29  23 CALM      29.92S
$$

NOTE: "FAIR" INDICATES FEW OR NO CLOUDS BELOW 12,000 FEET WITH NO
SIGNIFICANT WEATHER AND/OR OBSTRUCTIONS TO VISIBILITY. WIND
SPEEDS ARE IN MILES-PER-HOUR.



USA.gov is the U.S. government's official web portal to all federal, state and local government web resources and services.